Location: Grand Rapids
(42.9630°N, 85.6680°W)
Time: 03:01:21
(UTC-04:00)

A-11 Canister half - Pass Details

Date: 01 June 2024
Orbit: 1524 x 1684 km, 47.3° (Epoch: 21 June)

Event Time Altitude Azimuth Distance (km) Brightness Sun altitude
Rises 18:59:06 0° 213° (SSW) 4,666 11.8 22.3°
Reaches altitude 10° 19:02:18 10° 207° (SSW) 3,681 11.3 21.8°
Maximum altitude 19:10:55 45° 138° (SE) 1,979 9.5 20.2°
Drops below altitude 10° 19:19:38 10° 70° (ENE) 3,732 10.6 18.7°
Sets 19:22:53 0° 64° (ENE) 4,736 11.1 18.1°
